Change the Weather History Date:

Saturday, July 27, 2013

  Actual Average Record
Temperature  
Mean Temperature 57 °F 56 °F  
Max Temperature 59 °F 61 °F 81 °F (1987)
Min Temperature 54 °F 50 °F 44 °F (1989)
Degree Days  
Heating Degree Days 8    
Month to date heating degree days 190 290  
Since 1 June heating degree days 521 751  
Since 1 July heating degree days 190 290  
Cooling Degree Days 0    
Month to date cooling degree days 3  
Year to date cooling degree days 6  
Since 1 June cooling degree days 6  
Growing Degree Days 6 (Base 50)    
Moisture  
Dew Point 53 °F    
Average Humidity 0    
Maximum Humidity 0    
Minimum Humidity 0    
Precipitation  
Precipitation 0.02 in 0.15 in 1.35 in (1977)
Month to date precipitation 1.06 4.35  
Year to date precipitation 30.61 41.65  
Snow  
Snow 0.00 in 0.00 in 0.00 in (2014)
Month to date snowfall 0.0 0.0  
Since 1 June snowfall 0.0 0.0  
Since 1 July snowfall 0.0 0.0  
Snow Depth 0.00 in    
Sea Level Pressure  
Sea Level Pressure 30.36 in    
Wind  
Wind Speed 2 mph (East)    
Max Wind Speed 6 mph    
Max Gust Speed 7 mph    
Visibility 8 miles    
Events Rain    
T = Trace of Precipitation, MM = Missing Value Source: NWS Daily Summary

Daily Weather History Graph

Daily Weather History Graph

Search for Another Location

Airport or City:

Trip Planner

Search our weather history database for the weather conditions in past years. The results will help you decide how hot, cold, wet, or windy it might be!

Date:

Astronomy

Jul. 27, 2013 Rise Set
Actual Time 5:55 AM AKDT 10:36 PM AKDT
Civil Twilight 5:00 AM AKDT 11:30 PM AKDT
Nautical Twilight 3:20 AM AKDT 1:07 AM AKDT
Astronomical Twilight Sun does not rise Sun does not rise
Moon 11:52 PM AKDT (7/27) 1:19 PM AKDT (7/27)
Length of Visible Light 18h 30m
Length of Day
16h 40m
Waning Gibbous, 69% of the Moon is Illuminated
Jul 27
Waning Gibbous
Jul 29
Last Quarter
Aug 6
New
Aug 14
First Quarter
Aug 20
Full

Hourly Weather History & Observations

Time (AKDT) Temp. Dew Point Humidity Pressure Visibility Wind Dir Wind Speed Gust Speed Precip Events Conditions
12:53 AM 55.0 °F 52.0 °F 89% 30.34 in 10.0 mi Calm Calm - N/A   Overcast
1:53 AM 55.0 °F 52.0 °F 89% 30.34 in 10.0 mi Calm Calm - N/A   Overcast
2:53 AM 54.0 °F 51.1 °F 90% 30.34 in 10.0 mi Calm Calm - N/A   Overcast
3:53 AM 55.0 °F 51.1 °F 86% 30.34 in 10.0 mi East 3.5 mph - N/A   Overcast
4:53 AM 55.0 °F 51.1 °F 86% 30.35 in 10.0 mi Calm Calm - N/A   Overcast
5:53 AM 54.0 °F 52.0 °F 93% 30.35 in 2.5 mi Calm Calm - N/A   Overcast
6:25 AM 53.6 °F 51.8 °F 94% 30.35 in 4.0 mi Calm Calm - N/A   Overcast
6:53 AM 54.0 °F 52.0 °F 93% 30.36 in 2.0 mi East 3.5 mph - N/A   Overcast
7:53 AM 54.0 °F 53.1 °F 97% 30.37 in 2.0 mi Calm Calm - 0.01 in Rain Light Rain
8:36 AM 53.6 °F 53.6 °F 100% 30.37 in 6.0 mi SSE 3.5 mph - 0.01 in   Overcast
8:53 AM 55.0 °F 53.1 °F 93% 30.37 in 4.0 mi Calm Calm - 0.01 in   Overcast
9:26 AM 55.4 °F 53.6 °F 94% 30.37 in 4.0 mi Calm Calm - N/A   Overcast
9:53 AM 55.0 °F 53.1 °F 93% 30.37 in 4.0 mi Calm Calm - N/A   Overcast
10:53 AM 55.9 °F 53.1 °F 90% 30.38 in 10.0 mi Calm Calm - N/A   Overcast
11:53 AM 55.9 °F 53.1 °F 90% 30.38 in 6.0 mi Calm Calm - N/A   Overcast
12:53 PM 55.9 °F 54.0 °F 93% 30.38 in 6.0 mi East 4.6 mph - N/A   Overcast
1:53 PM 57.0 °F 54.0 °F 89% 30.38 in 10.0 mi ENE 3.5 mph - N/A   Overcast
2:53 PM 55.9 °F 54.0 °F 93% 30.38 in 6.0 mi East 3.5 mph - N/A   Overcast
3:00 PM 57.2 °F 53.6 °F 88% 30.38 in 10.0 mi East 4.6 mph - N/A   Overcast
3:41 PM 57.2 °F 53.6 °F 88% 30.38 in 5.0 mi East 3.5 mph - N/A   Overcast
3:53 PM 57.0 °F 54.0 °F 89% 30.38 in 5.0 mi East 4.6 mph - N/A   Overcast
4:53 PM 57.0 °F 52.0 °F 83% 30.37 in 10.0 mi ENE 3.5 mph - N/A   Overcast
5:46 PM 57.2 °F 53.6 °F 88% 30.36 in 10.0 mi ENE 4.6 mph - N/A   Overcast
5:53 PM 57.9 °F 53.1 °F 84% 30.36 in 10.0 mi ENE 3.5 mph - N/A   Overcast
6:53 PM 57.9 °F 53.1 °F 84% 30.36 in 10.0 mi ENE 3.5 mph - N/A   Mostly Cloudy
7:53 PM 57.9 °F 53.1 °F 84% 30.35 in 10.0 mi Calm Calm - N/A   Mostly Cloudy
8:53 PM 59.0 °F 53.1 °F 81% 30.35 in 10.0 mi Calm Calm - N/A   Mostly Cloudy
9:20 PM 57.2 °F 53.6 °F 88% 30.34 in 10.0 mi Calm Calm - N/A   Mostly Cloudy
9:53 PM 59.0 °F 53.1 °F 81% 30.34 in 10.0 mi Calm Calm - N/A   Mostly Cloudy
10:41 PM 57.2 °F 53.6 °F 88% 30.33 in 10.0 mi Calm Calm - N/A   Scattered Clouds
10:53 PM 57.0 °F 53.1 °F 87% 30.34 in 10.0 mi Calm Calm - N/A   Scattered Clouds
11:53 PM 55.9 °F 53.1 °F 90% 30.34 in 10.0 mi Calm Calm - N/A   Scattered Clouds